This is the latest recevied weather packets stored in our database for station/object K7CTM. If no packets are shown the sender has not sent any weather packets the latest 10 day(s).
| Time | Temp. | Humidity | Pressure | Rain* | Wind** | Luminosity | Snow |
|---|---|---|---|---|---|---|---|
| 1777902082 | 7.78° C | 53% | 1026 hPa | 0 mm | - | 62 W/m² | - |
| 1777901780 | 7.78° C | 52% | 1025.8 hPa | 0 mm | - | 49 W/m² | - |
| 1777901477 | 7.78° C | 53% | 1025.7 hPa | 0 mm | - | 50 W/m² | - |
| 1777901175 | 7.78° C | 54% | 1025.8 hPa | 0 mm | - | 52 W/m² | - |
| 1777900872 | 7.78° C | 52% | 1025.6 hPa | 0 mm | - | 53 W/m² | - |
| 1777900570 | 7.78° C | 52% | 1025.7 hPa | 0 mm | - | 49 W/m² | - |
| 1777900266 | 7.78° C | 52% | 1025.6 hPa | 0 mm | - | 49 W/m² | - |
| 1777899962 | 7.78° C | 53% | 1025.8 hPa | 0 mm | - | 40 W/m² | - |
| 1777899659 | 7.78° C | 53% | 1025.7 hPa | 0 mm | - | 35 W/m² | - |
| 1777899357 | 7.22° C | 53% | 1025.6 hPa | 0 mm | - | 32 W/m² | - |
| 1777899055 | 7.22° C | 52% | 1025.6 hPa | 0 mm | - | 28 W/m² | - |
| 1777898751 | 7.22° C | 53% | 1025.3 hPa | 0 mm | - | 22 W/m² | - |
| 1777898449 | 7.78° C | 51% | 1025.4 hPa | 0 mm | - | 16 W/m² | - |
| 1777898147 | 7.78° C | 51% | 1025.4 hPa | 0 mm | - | 13 W/m² | - |
| 1777897843 | 7.22° C | 52% | 1025.5 hPa | 0 mm | - | 10 W/m² | - |
| 1777897539 | 7.22° C | 53% | 1025.5 hPa | 0 mm | - | 8 W/m² | - |
| 1777897235 | 7.22° C | 51% | 1025.3 hPa | 0 mm | - | 6 W/m² | - |
| 1777896931 | 7.22° C | 52% | 1025.3 hPa | 0 mm | - | 4 W/m² | - |
| 1777896629 | 7.78° C | 52% | 1025.2 hPa | 0 mm | - | 3 W/m² | - |
| 1777896325 | 7.78° C | 51% | 1025.5 hPa | 0 mm | - | 2 W/m² | - |
| 1777896024 | 7.22° C | 51% | 1025.3 hPa | 0 mm | - | 1 W/m² | - |
| 1777895721 | 7.78° C | 50% | 1025.5 hPa | 0 mm | - | 1 W/m² | - |
| 1777895418 | 7.78° C | 50% | 1025.4 hPa | 0 mm | - | 0 W/m² | - |
| 1777895116 | 7.78° C | 50% | 1025.2 hPa | 0 mm | - | 0 W/m² | - |
| 1777894813 | 7.78° C | 50% | 1025.2 hPa | 0 mm | - | 0 W/m² | - |
* Rain latest hour (hover to see other rain measurements)
** Current wind speed in m/s (hover to see current wind gust speed)